Crosby, ND

5:29 AM CST on December 10, 2016 (GMT -0600)
Crosby

Weather History for KD50 - November, 2012

Change the Weather History Date:

Monday, November 5, 2012

  Actual Average (KISN) Record (KISN)
Temperature  
Mean Temperature 41 °F -  
Max Temperature 50 °F 43 °F 70 °F (1916)
Min Temperature 32 °F 20 °F -15 °F (1935)
Degree Days  
Heating Degree Days 24    
Moisture  
Dew Point 34 °F    
Average Humidity 90    
Maximum Humidity 100    
Minimum Humidity 61    
Precipitation  
Precipitation 0.00 in - - ()
Sea Level Pressure  
Sea Level Pressure 29.93 in    
Wind  
Wind Speed 12 mph (WSW)    
Max Wind Speed 34 mph    
Max Gust Speed 45 mph    
Visibility 9 miles    
Events Rain    
Averages and records for this station are not official NWS values.
T = Trace of Precipitation, MM = Missing Value Source: NWS Daily Summary

Daily Weather History Graph

Daily Weather History Graph

Search for Another Location

Airport or City:

Trip Planner

Search our weather history database for the weather conditions in past years. The results will help you decide how hot, cold, wet, or windy it might be!

Date:

Astronomy

Nov. 05, 2012 Rise Set
Actual Time 7:47 AM CST 5:25 PM CST
Civil Twilight 7:13 AM CST 5:58 PM CST
Nautical Twilight 6:36 AM CST 6:36 PM CST
Astronomical Twilight 5:59 AM CST 7:13 PM CST
Moon 11:06 PM CST (11/5) 1:09 PM CST (11/5)
Length of Visible Light 10h 45m
Length of Day
9h 37m
Waning Gibbous, 62% of the Moon is Illuminated
Nov 5
Waning Gibbous
Nov 6
Last Quarter
Nov 13
New
Nov 20
First Quarter
Nov 28
Full

Hourly Weather History & Observations

Time (CST) Temp. Windchill Dew Point Humidity Pressure Visibility Wind Dir Wind Speed Gust Speed Precip Events Conditions
12:15 AM 32.0 °F 25.6 °F 32.0 °F 100% 30.20 in 10.0 mi WNW 6.9 mph - N/A   Overcast
12:35 AM 32.0 °F 26.4 °F 32.0 °F 100% 30.20 in 10.0 mi WNW 5.8 mph - N/A   Overcast
12:55 AM 32.0 °F 26.4 °F 32.0 °F 100% 30.21 in 10.0 mi West 5.8 mph - N/A   Overcast
1:15 AM 32.0 °F 26.4 °F 32.0 °F 100% 30.20 in 10.0 mi WNW 5.8 mph - N/A   Overcast
1:35 AM 32.0 °F 26.4 °F 32.0 °F 100% 30.20 in 10.0 mi West 5.8 mph - N/A   Overcast
1:55 AM 32.0 °F 26.4 °F 32.0 °F 100% 30.19 in 10.0 mi West 5.8 mph - N/A   Overcast
2:15 AM 32.0 °F 26.4 °F 32.0 °F 100% 30.18 in 10.0 mi SW 5.8 mph - N/A   Overcast
2:35 AM 32.0 °F - 32.0 °F 100% 30.16 in 10.0 mi Calm Calm - N/A   Overcast
3:15 AM 32.0 °F 26.4 °F 32.0 °F 100% 30.15 in 10.0 mi SW 5.8 mph - N/A   Overcast
3:35 AM 32.0 °F 27.5 °F 32.0 °F 100% 30.16 in 10.0 mi SSW 4.6 mph - N/A   Overcast
3:55 AM 32.0 °F 24.2 °F 32.0 °F 100% 30.15 in 10.0 mi SSW 9.2 mph - N/A   Overcast
4:15 AM 32.0 °F 24.8 °F 32.0 °F 100% 30.14 in 10.0 mi SSW 8.1 mph - N/A   Overcast
4:35 AM 32.0 °F 23.6 °F 32.0 °F 100% 30.12 in 10.0 mi SW 10.4 mph - N/A   Overcast
4:55 AM 32.0 °F 23.6 °F 32.0 °F 100% 30.12 in 10.0 mi SSW 10.4 mph - N/A   Overcast
5:15 AM 32.0 °F 23.6 °F 32.0 °F 100% 30.11 in 10.0 mi SSW 10.4 mph - N/A   Overcast
5:35 AM 32.0 °F 23.6 °F 32.0 °F 100% 30.09 in 10.0 mi SSW 10.4 mph 17.3 mph N/A   Overcast
5:55 AM 32.0 °F 22.5 °F 32.0 °F 100% 30.07 in 7.0 mi South 12.7 mph - N/A   Overcast
6:15 AM 32.0 °F 23.6 °F 32.0 °F 100% 30.06 in 2.5 mi South 10.4 mph - N/A   Overcast
6:35 AM 32.0 °F 22.1 °F 32.0 °F 100% 30.06 in 2.0 mi SSW 13.8 mph 19.6 mph N/A   Overcast
6:55 AM 32.0 °F 23.6 °F 32.0 °F 100% 30.04 in 2.0 mi South 10.4 mph - N/A   Overcast
7:15 AM 32.0 °F 23.6 °F 32.0 °F 100% 30.03 in 1.5 mi South 10.4 mph - N/A   Overcast
7:35 AM 32.0 °F 20.5 °F 32.0 °F 100% 30.01 in 2.5 mi SSW 18.4 mph 21.9 mph N/A   Overcast
7:55 AM 32.0 °F 21.2 °F 32.0 °F 100% 29.99 in 2.0 mi South 16.1 mph 21.9 mph N/A   Overcast
8:15 AM 32.0 °F 21.2 °F 32.0 °F 100% 29.97 in 1.2 mi South 16.1 mph 25.3 mph N/A   Overcast
8:35 AM 32.0 °F 21.2 °F 32.0 °F 100% 29.97 in 3.0 mi South 16.1 mph 24.2 mph N/A   Overcast
8:55 AM 32.0 °F 20.8 °F 32.0 °F 100% 29.96 in 5.0 mi South 17.3 mph 20.7 mph N/A   Overcast
9:15 AM 32.0 °F 20.5 °F 32.0 °F 100% 29.95 in 9.0 mi South 18.4 mph 26.5 mph N/A   Overcast
9:35 AM 32.0 °F 20.8 °F 32.0 °F 100% 29.92 in 10.0 mi South 17.3 mph - N/A   Mostly Cloudy
9:55 AM 32.0 °F 21.6 °F 32.0 °F 100% 29.90 in 10.0 mi South 15.0 mph - N/A   Mostly Cloudy
10:15 AM 33.8 °F 22.8 °F 33.8 °F 100% 29.88 in 10.0 mi South 18.4 mph 27.6 mph N/A   Overcast
10:35 AM 33.8 °F 22.2 °F 33.8 °F 100% 29.86 in 10.0 mi South 20.7 mph 27.6 mph N/A   Overcast
10:55 AM 35.6 °F 24.5 °F 35.6 °F 100% 29.85 in 10.0 mi South 20.7 mph 26.5 mph N/A   Overcast
11:15 AM 35.6 °F 24.2 °F 35.6 °F 100% 29.83 in 10.0 mi South 21.9 mph 27.6 mph N/A   Mostly Cloudy
11:35 AM 35.6 °F 24.2 °F 35.6 °F 100% 29.82 in 10.0 mi South 21.9 mph 27.6 mph N/A   Mostly Cloudy
11:55 AM 37.4 °F 26.9 °F 35.6 °F 93% 29.80 in 10.0 mi South 20.7 mph 26.5 mph N/A   Overcast
12:15 PM 37.4 °F 27.5 °F 37.4 °F 100% 29.79 in 10.0 mi SSW 18.4 mph - N/A   Overcast
12:35 PM 39.2 °F 29.3 °F 37.4 °F 93% 29.76 in 10.0 mi SSW 20.7 mph 31.1 mph N/A   Overcast
12:55 PM 41.0 °F 31.6 °F 39.2 °F 93% 29.73 in 10.0 mi SSW 20.7 mph 28.8 mph N/A Rain Light Rain
1:15 PM 41.0 °F 31.4 °F 39.2 °F 93% 29.72 in 10.0 mi SSW 21.9 mph 29.9 mph N/A   Overcast
1:35 PM 42.8 °F 34.8 °F 39.2 °F 87% 29.71 in 10.0 mi SSW 17.3 mph 26.5 mph N/A   Mostly Cloudy
1:55 PM 42.8 °F 34.3 °F 39.2 °F 87% 29.70 in 10.0 mi SSW 19.6 mph - N/A   Scattered Clouds
2:15 PM 44.6 °F 37.4 °F 41.0 °F 87% 29.71 in 10.0 mi SSW 16.1 mph 25.3 mph N/A   Scattered Clouds
2:35 PM 46.4 °F 39.2 °F 41.0 °F 81% 29.70 in 10.0 mi SW 18.4 mph 23.0 mph N/A   Clear
2:55 PM 46.4 °F 39.8 °F 42.8 °F 87% 29.70 in 10.0 mi SSW 16.1 mph - N/A   Partly Cloudy
3:15 PM 46.4 °F 40.1 °F 42.8 °F 87% 29.69 in 10.0 mi SSW 15.0 mph - N/A   Partly Cloudy
3:35 PM 46.4 °F 41.1 °F 44.6 °F 93% 29.70 in 10.0 mi SSW 11.5 mph - N/A   Partly Cloudy
3:55 PM 50.0 °F - 44.6 °F 82% 29.71 in 10.0 mi West 13.8 mph 23.0 mph N/A   Partly Cloudy
4:15 PM 48.2 °F - 42.8 °F 82% 29.74 in 10.0 mi NW 34.5 mph 42.6 mph N/A   Clear
4:35 PM 44.6 °F 34.1 °F 41.0 °F 87% 29.77 in 10.0 mi NW 34.5 mph 44.9 mph N/A   Mostly Cloudy
4:55 PM 42.8 °F 32.9 °F 39.2 °F 87% 29.80 in 10.0 mi NW 26.5 mph 38.0 mph N/A   Overcast
5:15 PM 41.0 °F 31.4 °F 37.4 °F 87% 29.81 in 10.0 mi NW 21.9 mph 31.1 mph N/A   Scattered Clouds
5:35 PM 39.2 °F 29.8 °F 37.4 °F 93% 29.84 in 10.0 mi NW 18.4 mph 25.3 mph N/A   Clear
5:55 PM 39.2 °F 29.6 °F 37.4 °F 93% 29.86 in 10.0 mi NW 19.6 mph 27.6 mph N/A   Mostly Cloudy
6:15 PM 39.2 °F 30.5 °F 35.6 °F 87% 29.86 in 10.0 mi NW 16.1 mph 26.5 mph N/A   Mostly Cloudy
6:35 PM 39.2 °F 30.2 °F 35.6 °F 87% 29.86 in 10.0 mi WNW 17.3 mph 20.7 mph N/A   Mostly Cloudy
6:55 PM 39.2 °F 30.5 °F 35.6 °F 87% 29.87 in 10.0 mi NW 16.1 mph 20.7 mph N/A   Mostly Cloudy
7:15 PM 41.0 °F 33.5 °F 35.6 °F 81% 29.86 in 10.0 mi WNW 13.8 mph - N/A   Mostly Cloudy
7:35 PM 41.0 °F 33.9 °F 33.8 °F 76% 29.87 in 10.0 mi WNW 12.7 mph - N/A   Mostly Cloudy
7:55 PM 39.2 °F 32.0 °F 33.8 °F 81% 29.87 in 10.0 mi West 11.5 mph - N/A   Partly Cloudy
8:15 PM 39.2 °F 30.5 °F 32.0 °F 75% 29.88 in 10.0 mi West 16.1 mph 19.6 mph N/A   Clear
8:35 PM 39.2 °F 30.8 °F 32.0 °F 75% 29.88 in 10.0 mi West 15.0 mph - N/A   Clear
8:55 PM 39.2 °F 29.3 °F 32.0 °F 75% 29.88 in 10.0 mi West 20.7 mph 26.5 mph N/A   Partly Cloudy
9:15 PM 39.2 °F 29.8 °F 32.0 °F 75% 29.89 in 10.0 mi West 18.4 mph 26.5 mph N/A   Clear
9:35 PM 39.2 °F 30.5 °F 30.2 °F 70% 29.90 in 10.0 mi WNW 16.1 mph 24.2 mph N/A   Clear
9:55 PM 39.2 °F 29.3 °F 28.4 °F 65% 29.90 in 10.0 mi NW 20.7 mph 27.6 mph N/A   Clear
10:15 PM 39.2 °F 29.6 °F 26.6 °F 61% 29.91 in 10.0 mi NW 19.6 mph 27.6 mph N/A   Clear
10:35 PM 39.2 °F 30.2 °F 26.6 °F 61% 29.91 in 10.0 mi WNW 17.3 mph 25.3 mph N/A   Clear
10:55 PM 39.2 °F 29.3 °F 26.6 °F 61% 29.92 in 10.0 mi WNW 20.7 mph 26.5 mph N/A   Clear
11:15 PM 39.2 °F 29.0 °F 28.4 °F 65% 29.92 in 10.0 mi WNW 21.9 mph 27.6 mph N/A   Clear
11:35 PM 39.2 °F 29.6 °F 28.4 °F 65% 29.92 in 10.0 mi WNW 19.6 mph 26.5 mph N/A   Clear
11:55 PM 37.4 °F 26.9 °F 28.4 °F 70% 29.92 in 10.0 mi WNW 20.7 mph 27.6 mph N/A   Clear